Weather History for Poplar Bluff, MO

Change the Weather History Date:

Wednesday, May 14, 2014

  Actual Average Record
Temperature  
Mean Temperature 52 °F -  
Max Temperature 55 °F 78 °F 93 °F (1944)
Min Temperature 46 °F 54 °F 41 °F (1920)
Degree Days  
Heating Degree Days 14    
Growing Degree Days 2 (Base 50)    
Moisture  
Dew Point 45 °F    
Average Humidity 80    
Maximum Humidity 83    
Minimum Humidity 66    
Precipitation  
Precipitation 1.48 in - - ()
Sea Level Pressure  
Sea Level Pressure 30.07 in    
Wind  
Wind Speed 13 mph (NNW)    
Max Wind Speed 22 mph    
Max Gust Speed 31 mph    
Visibility 7 miles    
Events Rain    
Averages and records for this station are not official NWS values.
T = Trace of Precipitation, MM = Missing Value Source: NWS Daily Summary

Daily Weather History Graph

Daily Weather History Graph

Search for Another Location

Airport:

Trip Planner

Search our weather history database for the weather conditions in past years. The results will help you decide how hot, cold, wet, or windy it might be!

Date:

Astronomy

May. 14, 2014 Rise Set
Actual Time 5:54 AM CDT 8:01 PM CDT
Civil Twilight 5:25 AM CDT 8:30 PM CDT
Nautical Twilight 4:50 AM CDT 9:05 PM CDT
Astronomical Twilight 4:12 AM CDT 9:43 PM CDT
Moon 8:07 PM CDT (5/14) 5:52 AM CDT (5/14)
Length of Visible Light 15h 04m
Length of Day
14h 06m
Full, 100% of the Moon is Illuminated
May 14
Full
May 14
Full
May 21
Last Quarter
May 28
New
Jun 5
First Quarter

Hourly Weather History & Observations

Time (CDT) Temp. Dew Point Humidity Pressure Visibility Wind Dir Wind Speed Gust Speed Precip Events Conditions
12:53 AM 55.0 °F 50.0 °F 83% 30.17 in 4.0 mi North 6.9 mph - 0.09 in Rain Rain
1:33 AM 55.0 °F 50.0 °F 83% 30.15 in 8.0 mi North 10.4 mph - 0.06 in Rain Light Rain
1:46 AM 55.0 °F 48.9 °F 80% 30.15 in 7.0 mi North 13.8 mph - 0.07 in Rain Light Rain
1:53 AM 55.0 °F 48.9 °F 80% 30.15 in 5.0 mi North 15.0 mph - 0.09 in Rain Rain
2:53 AM 54.0 °F 48.9 °F 83% 30.12 in 7.0 mi North 13.8 mph - 0.13 in Rain Light Rain
3:14 AM 54.0 °F 48.9 °F 83% 30.13 in 6.0 mi NNE 11.5 mph - 0.04 in Rain Rain
3:44 AM 54.0 °F 48.0 °F 80% 30.11 in 9.0 mi North 18.4 mph - 0.07 in Rain Light Rain
4:17 AM 54.0 °F 48.0 °F 80% 30.12 in 7.0 mi North 13.8 mph - 0.01 in Rain Light Rain
4:31 AM 54.0 °F 48.0 °F 80% 30.11 in 9.0 mi NNE 17.3 mph - 0.01 in Rain Light Rain
4:53 AM 53.1 °F 46.9 °F 80% 30.12 in 6.0 mi NNE 11.5 mph - 0.03 in Rain Light Rain
5:53 AM 53.1 °F 46.9 °F 80% 30.11 in 10.0 mi NNE 15.0 mph - 0.03 in Rain Light Rain
6:53 AM 53.1 °F 46.9 °F 80% 30.11 in 10.0 mi NNE 10.4 mph - 0.00 in Rain Light Rain
7:13 AM 53.1 °F 48.0 °F 83% 30.10 in 7.0 mi North 9.2 mph - 0.00 in Rain Light Rain
7:53 AM 53.1 °F 46.9 °F 80% 30.07 in 9.0 mi NNE 13.8 mph - 0.01 in Rain Light Rain
8:53 AM 53.1 °F 46.9 °F 80% 30.07 in 6.0 mi NNE 15.0 mph - 0.03 in Rain Light Rain
10:06 AM 51.1 °F 46.0 °F 83% 30.09 in 4.0 mi NNW 16.1 mph - 0.05 in Rain Rain
10:34 AM 50.0 °F 44.1 °F 80% 30.06 in 6.0 mi NNW 17.3 mph - 0.12 in Rain Light Rain
10:53 AM 50.0 °F 44.1 °F 80% 30.06 in 7.0 mi NNW 18.4 mph - 0.14 in Rain Light Rain
11:32 AM 51.1 °F 45.0 °F 80% 30.05 in 2.5 mi NNW 16.1 mph - 0.13 in Rain Heavy Rain
11:53 AM 51.1 °F 45.0 °F 80% 30.02 in 4.0 mi North 21.9 mph 31.1 mph 0.22 in Rain Rain
12:25 PM 50.0 °F 45.0 °F 83% 30.05 in 2.0 mi NNW 13.8 mph 23.0 mph 0.11 in Rain Heavy Rain
12:30 PM 50.0 °F 45.0 °F 83% 30.05 in 1.8 mi NNW 11.5 mph 21.9 mph 0.14 in Rain Heavy Rain
12:43 PM 50.0 °F 45.0 °F 83% 30.05 in 2.0 mi NNW 15.0 mph - 0.22 in Rain Heavy Rain
12:53 PM 50.0 °F 45.0 °F 83% 30.06 in 2.0 mi NNW 16.1 mph 26.5 mph 0.30 in Rain Heavy Rain
1:13 PM 50.0 °F 45.0 °F 83% 30.06 in 1.8 mi North 9.2 mph - 0.12 in Rain Heavy Rain
1:22 PM 50.0 °F 45.0 °F 83% 30.06 in 2.0 mi NNW 10.4 mph - 0.18 in Rain Heavy Rain
1:38 PM 50.0 °F 45.0 °F 83% 30.03 in 3.0 mi North 13.8 mph - 0.26 in Rain Rain
1:53 PM 51.1 °F 45.0 °F 80% 30.04 in 3.0 mi North 10.4 mph - 0.30 in Rain Rain
2:02 PM 51.1 °F 45.0 °F 80% 30.03 in 4.0 mi North 8.1 mph - 0.02 in Rain Rain
2:53 PM 52.0 °F 46.0 °F 80% 29.99 in 10.0 mi North 21.9 mph 31.1 mph 0.08 in Rain Light Rain
3:05 PM 53.1 °F 46.0 °F 77% 29.98 in 10.0 mi North 21.9 mph 29.9 mph 0.00 in   Overcast
3:53 PM 55.0 °F 45.0 °F 69% 29.96 in 10.0 mi NNE 20.7 mph 29.9 mph 0.00 in   Overcast
4:53 PM 54.0 °F 43.0 °F 66% 30.00 in 10.0 mi North 16.1 mph 27.6 mph N/A   Overcast
5:06 PM 54.0 °F 43.0 °F 66% 30.00 in 10.0 mi NNW 16.1 mph 24.2 mph N/A   Overcast
5:30 PM 53.1 °F 43.0 °F 69% 30.02 in 10.0 mi NW 10.4 mph - N/A   Overcast
5:53 PM 53.1 °F 44.1 °F 71% 30.03 in 10.0 mi WNW 6.9 mph - N/A   Overcast
6:50 PM 50.0 °F 44.6 °F 82% 30.04 in 7.0 mi WNW 11.5 mph - 0.00 in Rain Light Rain
6:53 PM 50.0 °F 45.0 °F 83% 30.05 in 7.0 mi WNW 10.4 mph - 0.00 in Rain Light Rain
7:05 PM 50.0 °F 45.0 °F 83% 30.04 in 6.0 mi NW 11.5 mph - 0.01 in Rain Light Rain
7:14 PM 50.0 °F 45.0 °F 83% 30.04 in 6.0 mi NW 15.0 mph 20.7 mph 0.01 in Rain Light Rain
7:53 PM 50.0 °F 45.0 °F 83% 30.06 in 10.0 mi NW 13.8 mph - 0.01 in Rain Light Rain
8:43 PM 50.0 °F 44.1 °F 80% 30.06 in 10.0 mi WNW 10.4 mph - 0.00 in   Overcast
8:53 PM 48.9 °F 43.0 °F 80% 30.07 in 10.0 mi WNW 10.4 mph 19.6 mph 0.00 in Rain Light Rain
9:25 PM 48.9 °F 42.1 °F 77% 30.07 in 10.0 mi NW 13.8 mph - 0.00 in   Overcast
9:34 PM 48.9 °F 42.1 °F 77% 30.08 in 10.0 mi NW 12.7 mph - 0.00 in Rain Light Rain
9:53 PM 48.0 °F 42.1 °F 80% 30.09 in 10.0 mi NW 11.5 mph - 0.00 in Rain Light Rain
10:53 PM 48.0 °F 42.1 °F 80% 30.10 in 10.0 mi NW 9.2 mph - 0.02 in   Overcast
11:53 PM 46.9 °F 41.0 °F 80% 30.07 in 10.0 mi NW 9.2 mph - N/A   Overcast